User: anonymous   Login
Location: Homewood
(41.1836°S, 175.9581°E)
Time: 16:46:39
(UTC+00:00)
Language:

Cosmos 1745 Rocket - Orbit

View from above orbital plane
View from above orbital plane
View from above satellite
View from above satellite

Ground track
Ground track

The orbit data is extracted from the following two-line orbital elements,

1 16728U 86037B   24173.69768399  .00000067  00000-0  52173-4 0  9997
2 16728  82.9548 237.7770 0029647 234.0712 239.7270 13.76925755912778
Epoch (UTC): 21 June 2024 16:44:39
Eccentricity: 0.0029647
inclination: 82.9548°
perigee height: 953 km
apogee height: 996 km
right ascension of ascending node: 237.7770°
argument of perigee: 234.0712°
revolutions per day: 13.76925755
mean anomaly at epoch: 239.7270°
orbit number at epoch: 91277

The dashed part of the orbit path shows where the satellite is in the earth's shadow,  

DLR